Weather History for PABA - October, 2013

Change the Weather History Date:

Thursday, October 31, 2013

  Actual Average Record
Temperature  
Mean Temperature 16 °F -  
Max Temperature 19 °F 14 °F 35 °F (2002)
Min Temperature 12 °F 6 °F -9 °F (2004)
Degree Days  
Heating Degree Days 50    
Moisture  
Dew Point 12 °F    
Average Humidity 93    
Maximum Humidity 100    
Minimum Humidity 88    
Precipitation  
Precipitation 0.00 in - - ()
Sea Level Pressure  
Sea Level Pressure 29.69 in    
Wind  
Wind Speed 5 mph (WSW)    
Max Wind Speed 13 mph    
Max Gust Speed -    
Visibility 4 miles    
Events Fog , Snow    
Averages and records for this station are not official NWS values.
T = Trace of Precipitation, MM = Missing Value Source: NWS Daily Summary

Daily Weather History Graph

Daily Weather History Graph

Search for Another Location

Airport or City:

Trip Planner

Search our weather history database for the weather conditions in past years. The results will help you decide how hot, cold, wet, or windy it might be!

Date:

Astronomy

Oct. 31, 2013 Rise Set
Actual Time 10:03 AM AKDT 4:30 PM AKDT
Civil Twilight 8:49 AM AKDT 5:44 PM AKDT
Nautical Twilight 7:34 AM AKDT 6:59 PM AKDT
Astronomical Twilight 6:23 AM AKDT 8:09 PM AKDT
Moon 5:27 AM AKDT (10/31) 4:14 PM AKDT (10/31)
Length of Visible Light 8h 55m
Length of Day
6h 26m
Waning Crescent, 9% of the Moon is Illuminated
Oct 31
Waning Crescent
Nov 3
New
Nov 9
First Quarter
Nov 17
Full
Nov 25
Last Quarter

Hourly Weather History & Observations

Time (AKDT) Temp. Windchill Dew Point Humidity Pressure Visibility Wind Dir Wind Speed Gust Speed Precip Events Conditions
12:01 AM 19.0 °F 12.3 °F 17.1 °F 92% 29.54 in 10.0 mi ESE 4.6 mph - 0.00 in   Overcast
1:01 AM 19.0 °F 12.3 °F 17.1 °F 92% 29.55 in 10.0 mi ENE 4.6 mph - N/A   Overcast
2:01 AM 18.0 °F 9.8 °F 17.1 °F 96% 29.56 in 10.0 mi ESE 5.8 mph - 0.00 in   Overcast
3:01 AM 19.0 °F 13.9 °F 17.1 °F 92% 29.57 in 9.0 mi South 3.5 mph - 0.00 in   Overcast
4:01 AM 17.6 °F - 15.8 °F 93% 29.58 in 1.8 mi Calm Calm - 0.00 in Snow Light Snow
4:13 AM 17.6 °F - 15.8 °F 93% 29.58 in 3.0 mi Calm Calm - 0.00 in   Overcast
5:01 AM 14.0 °F - 10.9 °F 88% 29.59 in 5.0 mi Calm Calm - 0.00 in   Overcast
6:01 AM 14.0 °F 6.5 °F 12.2 °F 93% 29.60 in 1.8 mi SW 4.6 mph - N/A Snow Light Snow
6:24 AM 12.2 °F - 10.4 °F 92% 29.60 in 1.0 mi Calm Calm - N/A   Overcast
6:32 AM 12.2 °F - 10.4 °F 92% 29.60 in 1.8 mi Calm Calm - N/A   Overcast
6:39 AM 14.0 °F 5.1 °F 12.2 °F 93% 29.60 in 2.5 mi SSW 5.8 mph - N/A   Overcast
7:57 AM 12.2 °F - 10.4 °F 92% 29.61 in 6.0 mi Calm Calm - N/A   Overcast
8:01 AM 12.0 °F - 10.0 °F 92% 29.61 in 4.0 mi Calm Calm - N/A   Overcast
8:13 AM 12.2 °F - 10.4 °F 92% 29.61 in 2.5 mi Calm Calm - N/A   Overcast
8:22 AM 12.2 °F 4.3 °F 10.4 °F 92% 29.62 in 1.0 mi SSW 4.6 mph - 0.00 in Snow Light Snow
8:49 AM 12.2 °F 6.1 °F 10.4 °F 92% 29.62 in 1.0 mi SW 3.5 mph - N/A Snow Light Snow
9:01 AM 12.0 °F 2.7 °F 10.0 °F 92% 29.62 in 1.0 mi SW 5.8 mph - N/A Snow Light Snow
9:14 AM 12.2 °F 1.7 °F 10.4 °F 92% 29.62 in 1.0 mi WSW 6.9 mph - N/A   Overcast
9:28 AM 12.2 °F 4.3 °F 10.4 °F 92% 29.62 in 0.5 mi WSW 4.6 mph - N/A Fog Light Freezing Fog
9:57 AM 12.2 °F 6.1 °F 10.4 °F 92% 29.63 in 0.8 mi WSW 3.5 mph - N/A   Overcast
10:01 AM 12.0 °F 5.9 °F 10.0 °F 92% 29.63 in 0.8 mi WSW 3.5 mph - N/A   Overcast
10:03 AM 12.2 °F 6.1 °F 10.4 °F 92% 29.63 in 1.0 mi WSW 3.5 mph - N/A   Overcast
10:25 AM 12.2 °F 2.9 °F 10.4 °F 92% 29.64 in 1.5 mi WSW 5.8 mph - N/A   Overcast
10:37 AM 12.2 °F 4.3 °F 10.4 °F 92% 29.64 in 2.5 mi West 4.6 mph - N/A   Overcast
10:46 AM 14.0 °F 8.2 °F 12.2 °F 93% 29.64 in 3.0 mi West 3.5 mph - N/A   Overcast
11:01 AM 14.0 °F 8.2 °F 12.0 °F 92% 29.65 in 9.0 mi NW 3.5 mph - N/A   Overcast
11:14 AM 15.8 °F 10.2 °F 14.0 °F 93% 29.65 in 10.0 mi NW 3.5 mph - N/A   Overcast
12:01 PM 19.0 °F - 17.1 °F 92% 29.66 in 6.0 mi Calm Calm - N/A   Overcast
1:01 PM 15.1 °F 6.4 °F 12.9 °F 91% 29.67 in 6.0 mi WSW 5.8 mph - N/A   Overcast
2:01 PM 17.1 °F - 16.0 °F 96% 29.69 in 3.0 mi Calm Calm - N/A   Overcast
3:01 PM 17.1 °F 11.7 °F 15.1 °F 92% 29.70 in 5.0 mi SSW 3.5 mph - N/A   Overcast
3:49 PM 15.8 °F 6.1 °F 14.0 °F 93% 29.72 in 10.0 mi WSW 6.9 mph - N/A   Overcast
4:01 PM 15.8 °F 5.1 °F 14.0 °F 93% 29.72 in 9.0 mi WSW 8.1 mph - N/A   Overcast
4:54 PM 15.8 °F 6.1 °F 14.0 °F 93% 29.73 in 7.0 mi WSW 6.9 mph - N/A   Overcast
5:01 PM 16.0 °F 6.3 °F 15.1 °F 96% 29.73 in 3.0 mi WSW 6.9 mph - 0.00 in Snow Light Snow
5:09 PM 15.8 °F 6.1 °F 15.8 °F 100% 29.73 in 2.5 mi WSW 6.9 mph - 0.00 in Snow Light Snow
5:54 PM 15.8 °F 7.2 °F 15.8 °F 100% 29.74 in 2.0 mi WSW 5.8 mph - N/A Snow Light Snow
6:01 PM 17.6 °F 10.7 °F 15.8 °F 93% 29.74 in 3.0 mi WSW 4.6 mph - N/A Snow Light Snow
6:07 PM 15.8 °F 6.1 °F 14.0 °F 93% 29.75 in 5.0 mi WSW 6.9 mph - N/A   Overcast
7:05 PM 14.0 °F 1.2 °F 12.2 °F 93% 29.76 in - WSW 10.4 mph - N/A Snow Light Snow
7:54 PM 12.2 °F -1.8 °F 10.4 °F 92% 29.77 in 8.0 mi WSW 11.5 mph - N/A   Overcast
8:01 PM 12.9 °F -1.6 °F 10.9 °F 92% 29.77 in 9.0 mi WSW 12.7 mph - N/A   Overcast
8:45 PM 14.0 °F 2.0 °F 12.2 °F 93% 29.78 in 4.0 mi WSW 9.2 mph - N/A   Overcast
9:01 PM 14.0 °F 0.5 °F 12.2 °F 93% 29.79 in 2.5 mi WSW 11.5 mph - N/A   Overcast
9:46 PM 12.2 °F -1.8 °F 10.4 °F 92% 29.80 in 4.0 mi WSW 11.5 mph - N/A Snow Light Snow
9:56 PM 12.2 °F -0.2 °F 10.4 °F 92% 29.80 in 2.5 mi WSW 9.2 mph - N/A Snow Light Snow
10:01 PM 12.9 °F -0.9 °F 10.9 °F 92% 29.80 in 2.5 mi WSW 11.5 mph - N/A Snow Light Snow
10:38 PM 12.2 °F -1.8 °F 10.4 °F 92% 29.82 in 1.2 mi WSW 11.5 mph - N/A Snow Light Snow
10:45 PM 12.2 °F -1.0 °F 10.4 °F 92% 29.82 in 1.0 mi WSW 10.4 mph - N/A Snow Light Snow
10:55 PM 12.2 °F -1.0 °F 10.4 °F 92% 29.83 in 1.2 mi WSW 10.4 mph - N/A Snow Light Snow
11:01 PM 12.9 °F -0.2 °F 10.9 °F 92% 29.83 in 1.2 mi WSW 10.4 mph - N/A Snow Light Snow
11:19 PM 12.2 °F -1.8 °F 10.4 °F 92% 29.83 in 1.0 mi WSW 11.5 mph - 0.00 in Snow Light Snow
11:29 PM 12.2 °F -1.0 °F 10.4 °F 92% 29.83 in 0.8 mi WSW 10.4 mph - 0.00 in Snow Light Snow
11:43 PM 12.2 °F -1.0 °F 10.4 °F 92% 29.84 in 0.8 mi WSW 10.4 mph - 0.00 in Snow Light Snow
11:58 PM 12.2 °F -1.8 °F 10.4 °F 92% 29.84 in 1.2 mi WSW 11.5 mph - 0.00 in Snow Light Snow
11:59 PM 12.9 °F -0.9 °F 10.9 °F 92% 29.84 in 1.2 mi WSW 11.5 mph - 0.00 in Snow Light Snow